User: anonymous   Login
Location: Unspecified
(0.0000°N, 0.0000°E)
Time: 18:54:32
(UTC+00:00)
Language:

BEESAT 3 - Orbit

View from above orbital plane
View from above orbital plane
View from above satellite
View from above satellite

Ground track
Ground track

The orbit data is extracted from the following two-line orbital elements,

1 39134U 13015E   18016.44015266  .00001080  00000-0  61039-4 0  9996
2 39134  64.8630 257.6195 0029239 230.2977 129.5571 15.18718445261855
Epoch (UTC): 16 January 2018 10:33:49
Eccentricity: 0.0029239
inclination: 64.8630°
perigee height: 489 km
apogee height: 530 km
right ascension of ascending node: 257.6195°
argument of perigee: 230.2977°
revolutions per day: 15.18718445
mean anomaly at epoch: 129.5571°
orbit number at epoch: 26185

The dashed part of the orbit path shows where the satellite is in the earth's shadow,  

DLR